Find GPS III SV04

NORAD ID: 46826 Int'l Des: 2020-078 Owner: SMC Country: US Constellation: GPS operational
MEOCIRCULARGNSS

現在のビュー

3D地球を読み込み中...

About GPS III SV04

GPS III SV04 (NORAD 46826) is a GPS constellation satellite launched Nov 5, 2020 by SMC of US. It operates in MEO, CIRCULAR, GNSS orbit with a mass of 4400.00 kg.

GPS III SV04について

説明を読み込み中...

次回通過

Passes for default location (London). Set your location on the main map for personalized predictions.

高度履歴

Loading altitude history...

軌道要素

1 46826U 20078A 26166.28723538 .00000071 00000-0 00000-0 0 9990
2 46826 53.9800 210.8558 0073451 207.1440 163.1443 2.00564761 41479
Epoch: Jun 15, 2026 • Age: 15 hours

現在のステータス

高度 20232.0 km
速度 3.87 km/s
衛星直下点 51.69°N, 89.71°E
打ち上げ日 Nov 5, 2020
運用期間 5.6 years
タイプ navigation

技術仕様

分類 Payload
質量 4400.00 kg
乾燥質量 2160.00 kg
総質量 4400.00 kg
長さ 3.40 m
直径 1.80 m
スパン 14.00 m
形状 Box + 2 pan
製造者 LMSSD
バスタイプ A2100
フェーズステータス In Orbit
所有者/国 SMC/US

Most Searched